Terminal Aerodrome Forecast
Issued by NWS

Home | Current Version | Previous Version | Text Only | Print | Product List | Glossary On
Versions: 1 2 3 4 5 6 7 8 9 10 11 12 13 14 15 16 17 18 19 20 21 22 23 24 25 26 27
000
FTUS42 KFFC 020800 AAB
TAFFTY
TAF AMD
KFTY 020800Z 0208/0306 21004KT P6SM BKN120
     FM021000 26005KT 5SM BR BKN012
     FM021400 27008KT P6SM SCT015 BKN050
     FM021600 25008KT P6SM VCSH BKN050 PROB30 0218/0224 6SM TSRA
      BKN035CB
     FM030000 24006KT P6SM BKN100=

USA.gov is the U.S. government's official web portal to all federal, state and local government web resources and services.